This demonstration page uses our WeatherBlox Daily Observations layout. Learn more.

Left ArrowRight Arrow

Hourly Observations for April 3, 2016

Temp ( °F °C ) Dew Point ( °F °C ) Humidity (%) Winds ( mph kmh ) Pressure ( in mb ) Visibility ( mi km ) Precip ( " mm )
12:53 am 00:53 Cloudy 59 15 53 11.7 81 81 NNE 6 9 30.08 1019 10 16 0.00 0.00
1:53 am 01:53 Mostly Cloudy 59 15 53 11.7 81 81 Calm 30.08 1019 10 16 0.00 0.00
2:53 am 02:53 Mostly Clear 57 13.9 52 11.1 83 83 Calm 30.07 1018 10 16 0.00 0.00
3:53 am 03:53 Partly Cloudy 55 12.8 50 10 83 83 N 3 6 30.06 1018 10 16 0.00 0.00
4:53 am 04:53 Clear 57 13.9 51 10.6 81 81 N 5 7 30.06 1018 10 16 0.00 0.00
5:53 am 05:53 Mostly Cloudy 56 13.3 50 10 81 81 NNW 5 7 30.06 1018 10 16 0.00 0.00
6:53 am 06:53 Sunny 53 11.7 48 8.9 83 83 Calm 30.07 1018 10 16 0.00 0.00
7:53 am 07:53 Partly Cloudy 58 14.4 51 10.6 78 78 N 5 7 30.07 1018 10 16 0.00 0.00
8:53 am 08:53 Partly Cloudy 63 17 54 12 73 73 N 6 9 N/A 2 3 0.00 0.00
9:53 am 09:53 Partly Cloudy 66 18.9 53 11.7 63 63 Calm 30.08 1019 10 16 0.00 0.00
10:53 am 10:53 Mostly Cloudy 69 20.6 53 11.7 57 57 Calm 30.08 1019 10 16 0.00 0.00
11:53 am 11:53 Partly Cloudy 73 22.8 53 11.7 50 50 Calm 30.07 1018 10 16 0.00 0.00
12:53 pm 12:53 Sunny 75 23.9 52 11.1 45 45 Calm 30.05 1018 10 16 0.00 0.00
1:53 pm 13:53 Sunny 76 24.4 53 11.7 45 45 undefined N/A 30.02 1017 10 16 0.00 0.00
2:53 pm 14:53 Sunny 77 25 49 9.4 37 37 VRB 3 6 30.00 1016 10 16 0.00 0.00
3:53 pm 15:53 Sunny 79 26.1 49 9.4 35 35 SSE 9 15 29.98 1015 10 16 0.00 0.00
4:53 pm 16:53 Sunny 78 25.6 46 7.8 32 32 SSW 12 19 29.97 1015 10 16 0.00 0.00
5:53 pm 17:53 Sunny 77 25 50 10 39 39 SSW 8 13 29.97 1015 10 16 0.00 0.00
6:53 pm 18:53 Partly Cloudy 75 23.9 52 11.1 45 45 SSW 7 11 29.97 1015 10 16 0.00 0.00
7:53 pm 19:53 Mostly Cloudy 73 22.8 52 11.1 48 48 SSW 5 7 29.98 1015 10 16 0.00 0.00
8:53 pm 20:53 Mostly Cloudy 69 20.6 54 12.2 59 59 SE 3 6 30.00 1016 10 16 0.00 0.00
9:53 pm 21:53 Mostly Cloudy 66 18.9 54 12.2 65 65 Calm 30.02 1017 10 16 0.00 0.00
10:53 pm 22:53 Mostly Cloudy 66 18.9 54 12.2 65 65 SW 3 6 30.04 1017 10 16 0.00 0.00
11:53 pm 23:53 Mostly Cloudy 64 17.8 52 11.1 65 65 Calm 30.05 1018 10 16 0.00 0.00

Powered by AerisWeather